• In Hungary
  • List of Countries
  • For 7 days
  • Water Temperature
  • Satellite Maps
  • Weather Map
  • News
  • Weather Widgets
  • user-avatar
    Login

    Hourly Weather Krynica-Zdrój

    Today, 19 September, Wednesday

    Time Temperature Precipitation Wind Pressure Humidity
    00:00 +11°C° 0 mm 1 mps 682 mmHg 82%
    01:00 +11°C° 0 mm 1 mps 682 mmHg 82%
    02:00 +10°C° 0 mm 1 mps 682 mmHg 82%
    03:00 +10°C° 0 mm 1 mps 682 mmHg 82%
    04:00 +10°C° 0 mm 1 mps 682 mmHg 82%
    05:00 +11°C° 0 mm 1 mps 682 mmHg 78%
    06:00 +12°C° 0 mm 1 mps 683 mmHg 74%
    07:00 +13°C° 0 mm 1 mps 683 mmHg 66%
    08:00 +15°C° 0 mm 1 mps 684 mmHg 59%
    09:00 +18°C° 0 mm 2 mps 684 mmHg 52%
    10:00 +20°C° 0 mm 2 mps 685 mmHg 46%
    11:00 +20°C° 0 mm 2 mps 685 mmHg 45%
    12:00 +21°C° 0 mm 2 mps 685 mmHg 44%
    13:00 +23°C° 0 mm 2 mps 685 mmHg 43%
    14:00 +21°C° 0 mm 2 mps 685 mmHg 46%
    15:00 +21°C° 0 mm 2 mps 684 mmHg 50%
    16:00 +21°C° 0 mm 1 mps 684 mmHg 53%
    17:00 +19°C° 0 mm 1 mps 684 mmHg 61%
    18:00 +16°C° 0 mm 1 mps 683 mmHg 68%
    19:00 +14°C° 0 mm 1 mps 683 mmHg 76%
    20:00 +13°C° 0 mm 1 mps 683 mmHg 77%
    21:00 +13°C° 0 mm 1 mps 683 mmHg 79%
    22:00 +12°C° 0 mm 1 mps 683 mmHg 80%
    23:00 +12°C° 0 mm 1 mps 683 mmHg 80%

    Tomorrow, 20 September, Thursday

    Time Temperature Precipitation Wind Pressure Humidity
    00:00 +12°C° 0 mm 1 mps 683 mmHg 81%
    01:00 +12°C° 0 mm 1 mps 683 mmHg 81%
    02:00 +12°C° 0 mm 1 mps 683 mmHg 81%
    03:00 +12°C° 0 mm 1 mps 683 mmHg 81%
    04:00 +12°C° 0 mm 1 mps 683 mmHg 81%
    05:00 +13°C° 0 mm 1 mps 683 mmHg 78%
    06:00 +14°C° 0 mm 1 mps 683 mmHg 75%
    07:00 +15°C° 0 mm 1 mps 684 mmHg 72%
    08:00 +18°C° 0 mm 1 mps 684 mmHg 64%
    09:00 +20°C° 0 mm 1 mps 685 mmHg 56%
    10:00 +22°C° 0 mm 1 mps 685 mmHg 48%
    11:00 +22°C° 0 mm 1 mps 685 mmHg 47%
    12:00 +23°C° 0 mm 1 mps 685 mmHg 46%
    13:00 +23°C° 0 mm 1 mps 685 mmHg 45%
    14:00 +22°C° 0 mm 1 mps 684 mmHg 49%
    15:00 +22°C° 0 mm 1 mps 684 mmHg 53%
    16:00 +21°C° 0 mm 1 mps 683 mmHg 57%
    17:00 +19°C° 0 mm 1 mps 683 mmHg 63%
    18:00 +16°C° 0 mm 1 mps 683 mmHg 68%
    19:00 +14°C° 0 mm 1 mps 682 mmHg 73%
    20:00 +14°C° 0 mm 1 mps 682 mmHg 75%
    21:00 +13°C° 0 mm 1 mps 682 mmHg 76%
    22:00 +13°C° 0 mm 1 mps 682 mmHg 78%
    23:00 +13°C° 0 mm 1 mps 682 mmHg 78%

    Day after tomorrow, 21 September, Friday

    Time Temperature Precipitation Wind Pressure Humidity
    00:00 +12°C° 0 mm 1 mps 681 mmHg 79%
    01:00 +12°C° 0 mm 1 mps 681 mmHg 79%
    02:00 +12°C° 0 mm 1 mps 681 mmHg 79%
    03:00 +12°C° 0 mm 1 mps 681 mmHg 79%
    04:00 +11°C° 0 mm 1 mps 681 mmHg 79%
    05:00 +12°C° 0 mm 1 mps 681 mmHg 77%
    06:00 +13°C° 0 mm 1 mps 681 mmHg 74%
    07:00 +14°C° 0 mm 1 mps 681 mmHg 72%
    08:00 +16°C° 0 mm 2 mps 682 mmHg 64%
    09:00 +18°C° 0 mm 2 mps 682 mmHg 55%
    10:00 +20°C° 0 mm 3 mps 683 mmHg 47%
    11:00 +21°C° 0 mm 3 mps 682 mmHg 45%
    12:00 +22°C° 0 mm 4 mps 682 mmHg 43%
    13:00 +22°C° 0 mm 4 mps 682 mmHg 41%
    14:00 +22°C° 0 mm 3 mps 682 mmHg 44%
    15:00 +21°C° 0 mm 3 mps 681 mmHg 47%
    16:00 +21°C° 0 mm 2 mps 681 mmHg 50%
    17:00 +19°C° 0 mm 2 mps 680 mmHg 56%
    18:00 +16°C° 0 mm 2 mps 680 mmHg 61%
    19:00 +14°C° 0 mm 2 mps 679 mmHg 67%
    20:00 +14°C° 0 mm 2 mps 679 mmHg 66%
    21:00 +14°C° 0 mm 2 mps 679 mmHg 65%
    22:00 +13°C° 0 mm 2 mps 679 mmHg 63%
    23:00 +13°C° 0 mm 2 mps 679 mmHg 62%

    22 September, Saturday

    Time Temperature Precipitation Wind Pressure Humidity
    00:00 +13°C° 0 mm 2 mps 679 mmHg 61%
    01:00 +13°C° 0 mm 2 mps 679 mmHg 59%
    02:00 +12°C° 0 mm 1 mps 679 mmHg 58%
    03:00 +12°C° 0 mm 1 mps 679 mmHg 57%
    04:00 +12°C° 0 mm 1 mps 679 mmHg 56%
    05:00 +13°C° 0 mm 1 mps 679 mmHg 58%
    06:00 +13°C° 0 mm 1 mps 680 mmHg 60%
    07:00 +13°C° 0 mm 0 mps 680 mmHg 62%
    08:00 +15°C° 0.1 mm 1 mps 681 mmHg 62%
    09:00 +15°C° 0.1 mm 1 mps 681 mmHg 62%
    10:00 +16°C° 0.1 mm 2 mps 682 mmHg 63%
    11:00 +15°C° 0.5 mm 2 mps 682 mmHg 67%
    12:00 +15°C° 0.5 mm 2 mps 681 mmHg 70%
    13:00 +14°C° 0.5 mm 2 mps 681 mmHg 74%
    14:00 +12°C° 1.7 mm 2 mps 681 mmHg 79%
    15:00 +10°C° 1.7 mm 2 mps 681 mmHg 84%
    16:00 +8°C° 1.7 mm 2 mps 680 mmHg 89%
    17:00 +7°C° 1.1 mm 2 mps 680 mmHg 90%
    18:00 +7°C° 1.1 mm 2 mps 680 mmHg 91%
    19:00 +6°C° 1.1 mm 2 mps 680 mmHg 93%
    20:00 +6°C° 0.2 mm 2 mps 681 mmHg 93%
    21:00 +6°C° 0.2 mm 1 mps 681 mmHg 93%
    22:00 +5°C° 0.2 mm 1 mps 681 mmHg 92%
    23:00 +5°C° 0 mm 1 mps 681 mmHg 92%

    23 September, Sunday

    Time Temperature Precipitation Wind Pressure Humidity
    00:00 +5°C° 0 mm 1 mps 681 mmHg 92%
    01:00 +4°C° 0 mm 1 mps 681 mmHg 92%
    02:00 +4°C° 0 mm 1 mps 681 mmHg 92%
    03:00 +4°C° 0 mm 1 mps 681 mmHg 92%
    04:00 +4°C° 0 mm 1 mps 681 mmHg 91%
    05:00 +5°C° 0 mm 1 mps 681 mmHg 89%
    06:00 +5°C° 0 mm 1 mps 682 mmHg 86%
    07:00 +6°C° 0 mm 1 mps 682 mmHg 83%
    08:00 +8°C° 0 mm 1 mps 682 mmHg 74%
    09:00 +9°C° 0 mm 2 mps 682 mmHg 64%
    10:00 +12°C° 0 mm 2 mps 683 mmHg 54%
    11:00 +13°C° 0 mm 2 mps 682 mmHg 51%
    12:00 +12°C° 0 mm 3 mps 682 mmHg 47%
    13:00 +13°C° 0 mm 3 mps 681 mmHg 44%
    14:00 +13°C° 0 mm 3 mps 681 mmHg 47%
    15:00 +13°C° 0 mm 3 mps 680 mmHg 50%
    16:00 +12°C° 0 mm 3 mps 679 mmHg 52%
    17:00 +11°C° 0 mm 3 mps 678 mmHg 58%
    18:00 +9°C° 0 mm 3 mps 678 mmHg 63%
    19:00 +8°C° 0 mm 2 mps 677 mmHg 68%
    20:00 +8°C° 0 mm 3 mps 676 mmHg 66%
    21:00 +8°C° 0 mm 3 mps 675 mmHg 64%
    22:00 +8°C° 0 mm 3 mps 675 mmHg 62%
    23:00 +9°C° 0 mm 3 mps 674 mmHg 62%

    24 September, Monday

    Time Temperature Precipitation Wind Pressure Humidity
    00:00 +9°C° 0 mm 3 mps 673 mmHg 62%
    01:00 +9°C° 0 mm 3 mps 672 mmHg 61%
    02:00 +9°C° 0.2 mm 3 mps 672 mmHg 66%
    03:00 +9°C° 0.2 mm 3 mps 672 mmHg 71%
    04:00 +9°C° 0.2 mm 3 mps 671 mmHg 76%
    05:00 +9°C° 0.2 mm 3 mps 671 mmHg 79%
    06:00 +9°C° 0.2 mm 2 mps 671 mmHg 82%
    07:00 +8°C° 0.2 mm 2 mps 671 mmHg 86%
    08:00 +9°C° 0 mm 2 mps 672 mmHg 85%
    09:00 +10°C° 0 mm 2 mps 672 mmHg 84%
    10:00 +10°C° 0 mm 2 mps 672 mmHg 83%
    11:00 +10°C° 0.3 mm 2 mps 672 mmHg 86%
    12:00 +9°C° 0.3 mm 2 mps 672 mmHg 88%
    13:00 +9°C° 0.3 mm 3 mps 671 mmHg 90%
    14:00 +8°C° 1.2 mm 2 mps 671 mmHg 91%
    15:00 +7°C° 1.2 mm 2 mps 671 mmHg 91%
    16:00 +7°C° 1.2 mm 2 mps 671 mmHg 92%
    17:00 +7°C° 0.8 mm 2 mps 671 mmHg 92%
    18:00 +6°C° 0.8 mm 2 mps 672 mmHg 92%
    19:00 +6°C° 0.8 mm 2 mps 672 mmHg 92%
    20:00 +6°C° 0.1 mm 2 mps 673 mmHg 92%
    21:00 +6°C° 0.1 mm 2 mps 674 mmHg 92%
    22:00 +6°C° 0.1 mm 2 mps 674 mmHg 92%
    23:00 +5°C° 0 mm 2 mps 675 mmHg 92%
    Show more